DNO063 LGSM-LGIK

Flight info

Callsign DNO063
Flight time 0h 14m
Altitude 4500
Route IRREON BALLOS FOURNOI THYMENA DCT
Aircraft C208/L-SDFGR/C

Departure

Time 2026-05-05 08:57
Airport Samos Airport (LGSM)

Arrival

Time 2026-05-05 09:11
Airport Ikaria Airport (LGIK)
Time Latitude Longitude Altitude Speed Heading
2026-05-05 08:49 37.69079 26.91084 27 ft 0 kts
2026-05-05 08:55 37.69057 26.91066 27 ft 12 kts 169°
2026-05-05 08:55 37.68979 26.91055 27 ft 1 kts 190°
2026-05-05 08:55 37.68975 26.91054 27 ft 0 kts 191°
2026-05-05 08:56 37.68959 26.91050 27 ft 1 kts 193°
2026-05-05 08:56 37.68944 26.91053 28 ft 8 kts 152°
2026-05-05 08:56 37.68920 26.91193 28 ft 34 kts 92°
2026-05-05 08:56 37.68872 26.91734 69 ft 82 kts 91°
2026-05-05 08:57 37.68789 26.92464 381 ft 83 kts 83°
2026-05-05 08:57 37.68556 26.93201 624 ft 109 kts 137°
2026-05-05 08:57 37.67773 26.93233 833 ft 122 kts 217°
2026-05-05 08:57 37.67162 26.92475 1047 ft 131 kts 227°
2026-05-05 08:58 37.66511 26.91647 1365 ft 137 kts 230°
2026-05-05 08:58 37.65811 26.90783 1713 ft 143 kts 229°
2026-05-05 08:58 37.65046 26.89972 2036 ft 146 kts 213°
2026-05-05 08:58 37.64210 26.89272 2347 ft 145 kts 239°
2026-05-05 08:59 37.64003 26.88078 2598 ft 140 kts 281°
2026-05-05 08:59 37.64062 26.86831 2886 ft 148 kts 277°
2026-05-05 08:59 37.64104 26.85947 3073 ft 157 kts 280°
2026-05-05 08:59 37.64147 26.84523 3349 ft 167 kts 275°
2026-05-05 09:00 37.64168 26.83048 3604 ft 169 kts 278°
2026-05-05 09:00 37.64199 26.81575 3850 ft 166 kts 277°
2026-05-05 09:00 37.64239 26.80136 4128 ft 166 kts 278°
2026-05-05 09:00 37.64270 26.78655 4359 ft 167 kts 278°
2026-05-05 09:01 37.64298 26.77196 4493 ft 169 kts 279°
2026-05-05 09:01 37.64298 26.75679 4494 ft 179 kts 269°
2026-05-05 09:01 37.63969 26.74127 4498 ft 185 kts 259°
2026-05-05 09:01 37.63629 26.72559 4501 ft 186 kts 262°
2026-05-05 09:02 37.63300 26.70975 4509 ft 187 kts 261°
2026-05-05 09:02 37.62963 26.69381 4509 ft 189 kts 261°
2026-05-05 09:02 37.62624 26.67781 4515 ft 189 kts 261°
2026-05-05 09:02 37.62285 26.66178 4510 ft 188 kts 261°
2026-05-05 09:03 37.61954 26.64611 4504 ft 182 kts 261°
2026-05-05 09:03 37.61632 26.63079 4496 ft 179 kts 261°
2026-05-05 09:03 37.61313 26.61570 4495 ft 178 kts 261°
2026-05-05 09:03 37.60998 26.60084 4490 ft 177 kts 262°
2026-05-05 09:04 37.60681 26.58590 4497 ft 176 kts 261°
2026-05-05 09:04 37.60364 26.57098 4498 ft 176 kts 261°
2026-05-05 09:04 37.60047 26.55608 4505 ft 176 kts 261°
2026-05-05 09:04 37.59729 26.54111 4495 ft 177 kts 261°
2026-05-05 09:05 37.59411 26.52617 4514 ft 178 kts 261°
2026-05-05 09:05 37.59082 26.51085 4517 ft 184 kts 261°
2026-05-05 09:05 37.58745 26.49524 4502 ft 182 kts 261°
2026-05-05 09:05 37.58592 26.47976 4504 ft 177 kts 278°
2026-05-05 09:06 37.58633 26.46429 4502 ft 175 kts 277°
2026-05-05 09:06 37.58631 26.44918 4510 ft 168 kts 278°
2026-05-05 09:06 37.58643 26.43490 4397 ft 162 kts 278°
2026-05-05 09:06 37.58730 26.42085 4201 ft 158 kts 291°
2026-05-05 09:07 37.59221 26.40967 3971 ft 132 kts 317°
2026-05-05 09:07 37.59884 26.40308 3707 ft 114 kts 336°
2026-05-05 09:07 37.60516 26.39953 3425 ft 93 kts 340°
2026-05-05 09:07 37.61108 26.39659 3082 ft 90 kts 342°
2026-05-05 09:08 37.61668 26.39339 2772 ft 87 kts 336°
2026-05-05 09:08 37.62199 26.38986 2546 ft 85 kts 333°
2026-05-05 09:08 37.62712 26.38612 2316 ft 88 kts 332°
2026-05-05 09:08 37.63247 26.38197 2034 ft 92 kts 330°
2026-05-05 09:09 37.63750 26.37809 1871 ft 78 kts 331°
2026-05-05 09:09 37.64221 26.37479 1668 ft 78 kts 333°
2026-05-05 09:09 37.64695 26.37160 1479 ft 77 kts 333°
2026-05-05 09:09 37.65173 26.36829 1295 ft 80 kts 331°
2026-05-05 09:10 37.65656 26.36479 1108 ft 81 kts 331°
2026-05-05 09:10 37.66160 26.36130 851 ft 83 kts 335°
2026-05-05 09:10 37.66670 26.35783 607 ft 83 kts 334°
2026-05-05 09:10 37.67172 26.35444 368 ft 80 kts 334°
2026-05-05 09:11 37.67660 26.35120 138 ft 76 kts 333°
2026-05-05 09:11 37.68069 26.34849 87 ft 58 kts 333°
2026-05-05 09:11 37.68297 26.34691 87 ft 18 kts 332°
2026-05-05 09:11 37.68336 26.34591 87 ft 10 kts 279°
2026-05-05 09:12 37.68340 26.34562 87 ft 0 kts 281°
2026-05-05 09:12 37.68357 26.34530 88 ft 10 kts 311°
2026-05-05 09:12 37.68361 26.34487 87 ft 9 kts 182°
2026-05-05 09:12 37.68323 26.34484 89 ft 2 kts 184°
2026-05-05 09:13 37.68319 26.34484 88 ft 0 kts 183°